Location: Axtheid
(49.6213°N, 11.8205°E)
Time: 21:07:20
(UTC+00:00)

CZ-4 R/B - Pass Details

Date: 24 January 2021
Orbit: 531 x 599 km, 97.7° (Epoch: 02 March)

Event Time Altitude Azimuth Distance (km) Brightness Sun altitude
Rises 17:52:14 0° 172° (S) 2,784 4.9 -18.7°
Reaches altitude 10° 17:54:25 10° 175° (S) 1,879 4.1 -19.1°
Maximum altitude 17:58:27 66° 257° (WSW) 624 1.7 -19.7°
Drops below altitude 10° 18:02:27 10° 341° (NNW) 1,853 4.1 -20.4°
Sets 18:04:35 0° 345° (NNW) 2,742 5.0 -20.7°
